Simultaneous Nadir Overpasses (SNOs) Predictions

Prediction of SNOs between TERRA and METOP-C Satellite Orbit:

Table of predicted SNOs for the next 14.0 days since TLE Epoch: 1/28/2024
Index Date (TERRA) Time (TERRA) Lat,Lon (TERRA) SZA (TERRA ) Date (METOP-C) Time (METOP-C) Lat,Lon (METOP-C) SZA (METOP-C ) Distance(km) Time Diff (sec)
1 01/30/2024 05:07:14 79.82, 123.70 98.00 01/30/2024 05:06:40 79.84, 123.84 98.01 3.09 34
2 01/30/2024 05:56:32 -79.98, -67.45 81.80 01/30/2024 05:57:16 -79.98, -67.44 81.79 0.32 44
3 02/01/2024 20:27:54 -79.83, 73.54 82.74 02/01/2024 20:27:37 -79.82, 73.50 82.75 1.10 17
4 02/01/2024 21:17:11 79.96,-117.77 97.44 02/01/2024 21:18:13 79.96,-117.82 97.45 1.05 62
5 02/04/2024 11:48:31 79.86, 23.54 96.53 02/04/2024 11:48:32 79.86, 23.57 96.53 0.62 1
6 02/07/2024 02:19:51 79.68, 164.43 95.51 02/07/2024 02:18:52 79.68, 164.37 95.49 1.36 59
7 02/07/2024 03:09:08 -79.90, -26.35 84.23 02/07/2024 03:09:26 -79.90, -26.21 84.21 2.85 18
8 02/09/2024 17:40:29 -79.70, 114.39 85.31 02/09/2024 17:39:48 -79.69, 114.28 85.33 2.32 41



Historial Predications of SNOs between TERRA and METOP-C
